Angleton, TX

10:30 PM CDT on September 22, 2017 (GMT -0500)
Brazoria County

Weather History for KLBX - November, 2012

Change the Weather History Date:

Saturday, November 17, 2012

  Actual Average Record
Temperature  
Mean Temperature 54 °F -  
Max Temperature 69 °F 69 °F 84 °F (2013)
Min Temperature 39 °F 52 °F 33 °F (2014)
Degree Days  
Heating Degree Days 11    
Growing Degree Days 4 (Base 50)    
Moisture  
Dew Point 40 °F    
Average Humidity 67    
Maximum Humidity 96    
Minimum Humidity 31    
Precipitation  
Precipitation 0.00 in - - ()
Sea Level Pressure  
Sea Level Pressure 30.32 in    
Wind  
Wind Speed 5 mph (NE)    
Max Wind Speed 9 mph    
Max Gust Speed -    
Visibility 10 miles    
Events      
Averages and records for this station are not official NWS values.
T = Trace of Precipitation, MM = Missing Value Source: NWS Daily Summary

Daily Weather History Graph

Daily Weather History Graph

Search for Another Location

Airport or City:

Trip Planner

Search our weather history database for the weather conditions in past years. The results will help you decide how hot, cold, wet, or windy it might be!

Date:

Astronomy

Nov. 17, 2012 Rise Set
Actual Time 6:47 AM CST 5:26 PM CST
Civil Twilight 6:22 AM CST 5:51 PM CST
Nautical Twilight 5:53 AM CST 6:20 PM CST
Astronomical Twilight 5:25 AM CST 6:48 PM CST
Moon 10:32 AM CST (11/17) 9:35 PM CST (11/17)
Length of Visible Light 11h 29m
Length of Day
10h 38m
Waxing Crescent, 20% of the Moon is Illuminated
Nov 17
Waxing Crescent
Nov 20
First Quarter
Nov 28
Full
Dec 6
Last Quarter
Dec 13
New

Hourly Weather History & Observations

Time (CST) Temp. Windchill Dew Point Humidity Pressure Visibility Wind Dir Wind Speed Gust Speed Precip Events Conditions
12:53 AM 44.1 °F 41.5 °F 39.0 °F 82% 30.33 in 10.0 mi North 4.6 mph - N/A   Clear
1:53 AM 44.1 °F 40.8 °F 37.9 °F 79% 30.32 in 10.0 mi North 5.8 mph - N/A   Clear
2:53 AM 44.1 °F 40.8 °F 37.0 °F 76% 30.32 in 10.0 mi North 5.8 mph - N/A   Clear
3:53 AM 41.0 °F 37.1 °F 37.0 °F 86% 30.31 in 9.0 mi NNE 5.8 mph - N/A   Clear
4:53 AM 43.0 °F 38.8 °F 39.0 °F 86% 30.30 in 10.0 mi NNE 6.9 mph - N/A   Clear
5:53 AM 43.0 °F 39.5 °F 39.0 °F 86% 30.31 in 9.0 mi North 5.8 mph - N/A   Clear
6:53 AM 39.9 °F 35.8 °F 37.0 °F 89% 30.34 in 6.0 mi North 5.8 mph - N/A   Clear
7:53 AM 48.0 °F - 42.1 °F 80% 30.35 in 9.0 mi NNE 4.6 mph - N/A   Clear
8:53 AM 55.9 °F - 44.1 °F 64% 30.37 in 10.0 mi NE 5.8 mph - N/A   Clear
9:53 AM 61.0 °F - 46.9 °F 60% 30.36 in 10.0 mi ENE 4.6 mph - N/A   Clear
10:53 AM 64.9 °F - 39.9 °F 40% 30.37 in 10.0 mi ESE 5.8 mph - N/A   Clear
11:53 AM 69.1 °F - 39.0 °F 33% 30.35 in 10.0 mi NNE 8.1 mph - N/A   Clear
12:53 PM 69.1 °F - 37.0 °F 31% 30.32 in 10.0 mi Calm Calm - N/A   Clear
1:53 PM 69.1 °F - 43.0 °F 39% 30.29 in 10.0 mi East 5.8 mph - N/A   Clear
2:53 PM 69.1 °F - 43.0 °F 39% 30.28 in 10.0 mi ESE 8.1 mph - N/A   Clear
3:53 PM 68.0 °F - 39.9 °F 36% 30.29 in 10.0 mi East 9.2 mph - N/A   Clear
4:53 PM 64.0 °F - 37.9 °F 38% 30.29 in 10.0 mi ESE 5.8 mph - N/A   Clear
5:53 PM 57.9 °F - 42.1 °F 56% 30.29 in 10.0 mi East 3.5 mph - N/A   Clear
6:53 PM 53.1 °F - 42.1 °F 66% 30.30 in 10.0 mi Calm Calm - N/A   Clear
7:53 PM 46.9 °F - 41.0 °F 80% 30.30 in 10.0 mi Calm Calm - N/A   Clear
8:53 PM 44.1 °F - 41.0 °F 89% 30.30 in 10.0 mi Calm Calm - N/A   Clear
9:53 PM 43.0 °F - 39.9 °F 89% 30.31 in 10.0 mi Calm Calm - N/A   Clear
10:53 PM 41.0 °F - 39.9 °F 96% 30.31 in 8.0 mi Calm Calm - N/A   Clear
11:53 PM 43.0 °F 41.3 °F 41.0 °F 93% 30.30 in 8.0 mi NNE 3.5 mph - N/A   Clear